Weather History for Thomson, GA

Change the Weather History Date:

Saturday, November 3, 2012

  Actual Average (KDBN) Record (KDBN)
Temperature  
Mean Temperature 58 °F -  
Max Temperature 79 °F 75 °F 90 °F (1961)
Min Temperature 36 °F 47 °F 21 °F (1954)
Degree Days  
Heating Degree Days 8    
Growing Degree Days 8 (Base 50)    
Moisture  
Dew Point 45 °F    
Average Humidity 72    
Maximum Humidity 100    
Minimum Humidity 31    
Precipitation  
Precipitation 0.00 in - - ()
Sea Level Pressure  
Sea Level Pressure 30.08 in    
Wind  
Wind Speed 1 mph (WSW)    
Max Wind Speed 9 mph    
Max Gust Speed -    
Visibility 10 miles    
Events      
Averages and records for this station are not official NWS values.
T = Trace of Precipitation, MM = Missing Value Source: NWS Daily Summary

Daily Weather History Graph

Daily Weather History Graph

Search for Another Location

Airport:

Trip Planner

Search our weather history database for the weather conditions in past years. The results will help you decide how hot, cold, wet, or windy it might be!

Date:

Astronomy

Nov. 03, 2012 Rise Set
Actual Time 7:51 AM EDT 6:35 PM EDT
Civil Twilight 7:25 AM EDT 7:01 PM EDT
Nautical Twilight 6:55 AM EDT 7:31 PM EDT
Astronomical Twilight 6:26 AM EDT 8:00 PM EDT
Moon 10:20 PM EDT (11/3) 11:49 AM EDT (11/3)
Length of Visible Light 11h 36m
Length of Day
10h 44m
Waning Gibbous, 80% of the Moon is Illuminated
Nov 3
Waning Gibbous
Nov 6
Last Quarter
Nov 13
New
Nov 20
First Quarter
Nov 28
Full

Hourly Weather History & Observations

Time (EDT) Temp. Dew Point Humidity Pressure Visibility Wind Dir Wind Speed Gust Speed Precip Events Conditions
12:15 AM 48.4 °F 45.0 °F 88% 30.03 in 10.0 mi Calm Calm - N/A   Clear
12:35 AM 46.8 °F 43.9 °F 90% 30.04 in 10.0 mi Calm Calm - N/A   Clear
12:55 AM 45.7 °F 43.9 °F 93% 30.05 in 10.0 mi Calm Calm - N/A   Clear
1:15 AM 45.9 °F 44.4 °F 95% 30.05 in 10.0 mi Calm Calm - N/A   Clear
1:35 AM 44.8 °F 43.9 °F 97% 30.05 in 10.0 mi Calm Calm - N/A   Clear
1:55 AM 44.6 °F 43.9 °F 97% 30.05 in 10.0 mi Calm Calm - N/A   Clear
2:15 AM 43.2 °F 42.6 °F 98% 30.05 in 10.0 mi Calm Calm - N/A   Clear
2:35 AM 43.2 °F 43.0 °F 99% 30.05 in 10.0 mi Calm Calm - N/A   Clear
2:55 AM 41.9 °F 41.7 °F 99% 30.05 in 10.0 mi Calm Calm - N/A   Clear
3:15 AM 41.7 °F 41.7 °F 100% 30.06 in 10.0 mi Calm Calm - N/A   Clear
3:35 AM 41.2 °F 41.2 °F 100% 30.06 in 10.0 mi Calm Calm - N/A   Clear
3:55 AM 41.0 °F 41.0 °F 100% 30.06 in 10.0 mi Calm Calm - N/A   Clear
4:15 AM 40.1 °F 40.1 °F 100% 30.06 in 10.0 mi Calm Calm - N/A   Clear
4:35 AM 40.3 °F 40.3 °F 100% 30.06 in 10.0 mi Calm Calm - N/A   Clear
4:55 AM 39.2 °F 39.2 °F 100% 30.07 in 10.0 mi Calm Calm - N/A   Clear
5:15 AM 39.0 °F 39.0 °F 100% 30.07 in 10.0 mi Calm Calm - N/A   Clear
5:35 AM 38.1 °F 38.1 °F 100% 30.08 in 10.0 mi Calm Calm - N/A   Clear
5:55 AM 39.0 °F 39.0 °F 100% 30.08 in 10.0 mi Calm Calm - N/A   Clear
6:15 AM 37.6 °F 37.6 °F 100% 30.09 in 10.0 mi Calm Calm - N/A   Clear
6:35 AM 37.9 °F 37.9 °F 100% 30.09 in 10.0 mi Calm Calm - N/A   Clear
6:55 AM 36.9 °F 36.9 °F 100% 30.09 in 7.0 mi Calm Calm - N/A   Clear
7:15 AM 37.4 °F 37.4 °F 100% 30.10 in 7.0 mi Calm Calm - N/A   Clear
7:35 AM 36.5 °F 36.5 °F 100% 30.11 in 10.0 mi Calm Calm - N/A   Clear
7:55 AM 36.9 °F 36.9 °F 100% 30.12 in 7.0 mi Calm Calm - N/A   Clear
8:15 AM 36.0 °F 36.0 °F 100% 30.13 in 10.0 mi Calm Calm - N/A   Clear
8:35 AM 37.8 °F 37.8 °F 100% 30.13 in 10.0 mi Calm Calm - N/A   Clear
8:55 AM 41.4 °F 41.2 °F 99% 30.14 in 10.0 mi Calm Calm - N/A   Clear
9:15 AM 45.3 °F 44.6 °F 97% 30.15 in 10.0 mi Calm Calm - N/A   Clear
9:35 AM 49.1 °F 46.4 °F 90% 30.15 in 10.0 mi Calm Calm - N/A   Clear
9:55 AM 53.6 °F 47.3 °F 79% 30.15 in 10.0 mi Calm Calm - N/A   Clear
10:15 AM 56.8 °F 47.7 °F 71% 30.15 in 10.0 mi Calm Calm - N/A   Clear
10:35 AM 59.4 °F 46.9 °F 63% 30.15 in 10.0 mi Calm Calm - N/A   Clear
10:55 AM 63.1 °F 44.1 °F 50% 30.16 in 10.0 mi South 5.8 mph - N/A   Clear
11:15 AM 64.4 °F 45.0 °F 49% 30.15 in 10.0 mi SSE 3.5 mph - N/A   Clear
11:35 AM 66.2 °F 43.5 °F 44% 30.14 in 10.0 mi South 3.5 mph - N/A   Clear
11:55 AM 67.3 °F 43.7 °F 42% 30.14 in 10.0 mi SSW 5.8 mph - N/A   Clear
12:15 PM 69.1 °F 43.7 °F 40% 30.13 in 10.0 mi SW 3.5 mph - N/A   Clear
12:35 PM 70.3 °F 43.5 °F 38% 30.13 in 10.0 mi WSW 4.6 mph - N/A   Clear
12:55 PM 71.8 °F 44.4 °F 37% 30.12 in 10.0 mi West 4.6 mph - N/A   Clear
1:15 PM 72.3 °F 43.3 °F 35% 30.11 in 10.0 mi Calm Calm - N/A   Clear
1:35 PM 74.3 °F 44.6 °F 35% 30.10 in 10.0 mi Calm Calm - N/A   Clear
1:55 PM 75.7 °F 43.9 °F 32% 30.09 in 10.0 mi Calm Calm - N/A   Clear
2:15 PM 76.3 °F 43.5 °F 31% 30.08 in 10.0 mi West 4.6 mph - N/A   Clear
2:35 PM 76.6 °F 45.1 °F 33% 30.07 in 10.0 mi West 4.6 mph - N/A   Clear
2:55 PM 78.1 °F 46.2 °F 32% 30.06 in 10.0 mi West 5.8 mph - N/A   Clear
3:15 PM 78.1 °F 46.8 °F 33% 30.05 in 10.0 mi West 6.9 mph - N/A   Clear
3:35 PM 79.2 °F 48.2 °F 34% 30.05 in 10.0 mi WSW 9.2 mph - N/A   Clear
3:55 PM 79.0 °F 48.6 °F 34% 30.04 in 10.0 mi West 4.6 mph - N/A   Clear
4:15 PM 79.0 °F 49.6 °F 36% 30.04 in 10.0 mi WNW 6.9 mph - N/A   Clear
4:35 PM 78.8 °F 50.0 °F 36% 30.04 in 10.0 mi West 6.9 mph - N/A   Clear
4:55 PM 79.2 °F 50.5 °F 37% 30.04 in 10.0 mi WNW 6.9 mph - N/A   Clear
5:15 PM 78.6 °F 50.4 °F 37% 30.04 in 10.0 mi West 5.8 mph - N/A   Clear
5:35 PM 77.9 °F 51.1 °F 39% 30.04 in 10.0 mi WSW 8.1 mph - N/A   Clear
5:55 PM 77.0 °F 51.1 °F 40% 30.04 in 10.0 mi SW 3.5 mph - N/A   Clear
6:15 PM 74.8 °F 51.1 °F 43% 30.04 in 10.0 mi SW 3.5 mph - N/A   Clear
6:35 PM 72.5 °F 51.3 °F 47% 30.04 in 10.0 mi SW 3.5 mph - N/A   Clear
6:55 PM 67.6 °F 51.6 °F 56% 30.05 in 10.0 mi SSW 3.5 mph - N/A   Clear
7:15 PM 66.2 °F 52.0 °F 60% 30.06 in 10.0 mi SSW 3.5 mph - N/A   Clear
7:35 PM 63.7 °F 52.0 °F 66% 30.06 in 10.0 mi Calm Calm - N/A   Clear
7:55 PM 62.6 °F 51.8 °F 68% 30.06 in 10.0 mi Calm Calm - N/A   Clear
8:15 PM 60.8 °F 51.8 °F 72% 30.06 in 10.0 mi Calm Calm - N/A   Clear
8:35 PM 59.9 °F 51.8 °F 75% 30.06 in 10.0 mi Calm Calm - N/A   Clear
8:55 PM 59.5 °F 51.3 °F 74% 30.06 in 10.0 mi Calm Calm - N/A   Clear
9:15 PM 58.5 °F 51.8 °F 79% 30.06 in 10.0 mi Calm Calm - N/A   Clear
9:35 PM 58.3 °F 51.6 °F 78% 30.06 in 10.0 mi Calm Calm - N/A   Clear
9:55 PM 56.3 °F 51.1 °F 83% 30.06 in 10.0 mi Calm Calm - N/A   Clear
10:15 PM 57.2 °F 51.8 °F 82% 30.06 in 10.0 mi Calm Calm - N/A   Clear
10:35 PM 56.7 °F 52.0 °F 84% 30.06 in 10.0 mi Calm Calm - N/A   Clear
10:55 PM 57.0 °F 52.2 °F 84% 30.05 in 10.0 mi Calm Calm - N/A   Clear
11:15 PM 56.3 °F 51.6 °F 84% 30.06 in 10.0 mi Calm Calm - N/A   Clear
11:35 PM 55.8 °F 51.6 °F 86% 30.05 in 10.0 mi Calm Calm - N/A   Clear
11:55 PM 57.4 °F 52.2 °F 83% 30.05 in 10.0 mi SSW 3.5 mph - N/A   Clear